Вернуться в каталог

STARLINK-35320

АктивенСвязьVLEO
NORAD 65834·PAYLOAD·🇺🇸 United States

Запущен Sep 29, 2025 с Vandenberg Space Force Base

Loading…

Ближайшие Пролёты (ближайшие 24 часа)

TLE

СвежийSource: CelesTrak SupGP

Эпоха: Sep 14, 2026, 22:57 UTC

1 65834C 25221M   26257.95673611  .00058829  00000+0  17383-2 0  2570
2 65834  53.1564 287.7223 0001215  86.9243 220.5378 15.34358065    12

Отслеживайте STARLINK-35320 в реальном времени с AllMySat

Download on the App Store